GFSMA_500_spd_000.txt.gz
Wind_Speed
29 28 28 29 30 30 32 32 33 34 35 35 35 35 36 37 38 38 39 40 41 42 42 42 42 41 39 37 36 39 42 42 42 42 44 46 45 47 46 45 45 45 45
33 30 31 32 32 34 35 36 38 39 39 40 40 40 41 41 42 42 42 43 43 44 44 43 42 42 42 41 41 40 40 42 44 45 48 49 50 51 51 49 47 47 46
32 31 33 35 35 36 37 39 41 42 43 44 44 44 44 44 44 45 45 45 46 46 47 46 44 42 42 44 44 45 45 40 38 40 42 44 44 44 44 44 48 46 47
33 33 35 37 38 38 38 40 43 44 45 45 47 48 48 48 47 47 46 47 48 48 49 48 48 47 44 43 45 47 49 47 45 42 42 43 43 43 43 43 46 47 46
36 36 37 39 41 40 40 44 45 46 46 47 48 49 50 50 50 48 48 49 49 51 51 51 49 50 49 47 46 46 47 50 48 49 46 44 45 45 45 45 43 42 41
40 40 41 43 44 44 45 48 48 49 49 50 52 51 51 51 51 52 52 52 52 53 54 53 51 53 53 52 50 47 46 47 45 48 46 45 46 46 47 42 40 39 38
42 42 44 47 48 47 48 50 52 51 52 53 54 54 54 55 54 55 56 54 54 56 55 55 56 56 54 57 52 52 49 43 46 45 45 45 45 46 44 41 40 40 40
45 46 47 48 49 52 51 53 56 56 54 55 56 58 58 57 58 58 57 56 55 57 56 60 61 61 58 59 56 52 53 42 45 44 45 44 44 44 41 40 41 43 41
43 45 47 49 50 51 52 53 54 57 58 57 59 60 63 63 62 57 56 55 55 56 62 62 61 61 63 64 62 57 52 44 44 42 41 46 43 44 41 44 45 44 43
41 43 46 49 52 54 55 57 58 59 62 63 63 63 63 63 64 64 61 60 61 62 61 59 62 62 62 64 61 56 52 45 46 43 44 43 45 43 44 48 47 46 46
48 50 53 56 58 60 59 60 62 64 65 67 66 67 66 63 61 65 66 63 67 63 58 58 58 59 61 64 60 53 50 49 47 45 46 45 44 42 48 48 49 48 49
56 57 59 60 62 64 65 64 65 65 66 67 67 67 67 66 64 66 68 67 70 64 62 57 57 55 57 59 56 52 50 50 49 47 46 46 43 43 51 49 47 48 50
59 60 61 62 62 63 64 65 67 68 66 68 68 67 68 68 69 72 71 69 69 63 60 56 57 56 55 58 55 53 49 49 46 46 44 46 45 50 48 47 48 50 51
64 66 67 67 66 67 68 68 69 68 67 68 70 69 70 70 72 74 72 70 70 66 60 48 54 55 52 52 53 53 52 50 42 43 46 48 50 48 48 48 49 50 55
68 69 69 69 68 68 67 68 69 69 70 71 74 75 75 74 74 75 72 67 68 70 61 52 56 56 51 55 49 46 50 51 46 43 47 47 49 48 51 50 51 55 57
65 62 62 65 66 67 70 72 74 73 75 75 77 78 79 78 78 78 73 70 66 66 61 54 57 55 57 56 52 48 48 50 48 44 47 47 51 50 54 51 51 53 56
64 66 69 71 74 74 74 76 77 76 78 79 76 77 76 75 77 76 75 70 69 66 61 62 58 57 57 60 54 47 49 48 49 50 47 48 51 53 53 51 51 53 56
70 71 72 73 75 77 79 79 79 81 82 84 84 82 73 65 67 77 77 74 66 61 59 63 55 56 58 57 52 47 50 52 52 50 48 48 52 52 50 50 52 54 57
71 71 72 73 75 77 79 80 79 80 82 84 86 88 87 84 81 81 80 81 73 70 69 61 52 54 59 58 57 49 47 49 48 48 48 48 45 47 48 49 52 55 59
71 73 75 77 78 78 80 79 78 77 81 83 82 81 80 81 82 81 79 78 72 66 58 57 51 57 53 59 54 51 50 49 50 49 49 46 43 45 44 49 52 56 59
72 72 73 76 78 80 81 81 82 83 84 82 78 75 76 75 75 75 74 73 67 60 55 59 55 55 54 54 54 52 47 48 48 52 54 45 41 44 45 49 52 55 56
75 76 77 80 79 80 81 81 82 83 81 80 81 77 76 75 72 70 67 64 62 57 53 55 47 54 55 55 50 49 48 50 48 50 56 44 43 44 47 51 53 54 55
77 79 80 79 79 79 78 78 79 80 81 82 81 80 77 74 72 70 65 65 61 55 53 54 57 54 55 51 52 46 48 43 42 46 53 51 48 47 50 51 52 54 55
80 79 80 79 77 75 76 79 79 79 79 78 79 79 78 75 71 69 66 62 58 55 54 56 57 54 49 52 52 47 48 42 38 42 45 46 45 47 51 51 52 55 54
80 79 78 77 75 75 73 75 77 78 78 78 79 77 75 74 69 65 62 53 48 50 49 45 43 45 49 48 46 45 47 42 36 41 44 42 45 48 50 51 53 53 53
71 71 72 71 71 72 75 78 81 82 81 80 77 73 69 67 63 58 53 48 46 42 39 44 44 42 43 42 42 40 44 37 39 44 44 37 44 49 50 53 53 53 50

GFSMA_500_spd_003.txt.gz
Wind_Speed
39 39 38 36 33 32 32 33 34 35 36 35 35 36 36 36 37 38 40 40 41 41 42 43 42 41 42 41 42 43 41 39 40 40 41 47 50 52 51 51 52 51 50
42 40 40 37 35 35 35 36 37 36 38 38 39 39 38 38 40 41 42 42 42 43 44 44 45 45 44 44 43 44 45 45 43 44 45 46 42 46 45 42 44 45 46
38 37 37 37 37 37 38 38 38 39 41 42 42 44 43 44 44 44 44 44 46 47 47 48 48 48 48 48 46 47 47 46 46 45 47 49 48 46 50 45 44 42 44
37 38 37 36 38 39 41 43 42 42 44 46 48 48 48 49 48 47 46 47 49 49 50 48 50 50 49 48 48 49 52 52 49 49 48 52 50 52 47 50 45 43 46
36 36 37 38 39 41 44 46 45 47 48 50 51 50 51 50 49 49 50 51 50 51 52 51 50 50 49 49 52 54 54 55 54 55 55 56 51 51 47 51 46 44 47
37 38 39 41 43 43 45 49 50 52 53 53 54 51 50 50 50 50 52 53 56 53 51 50 49 49 47 50 53 51 53 57 57 58 57 61 53 48 48 47 45 45 44
40 41 42 42 44 44 45 47 50 51 52 53 55 53 52 53 53 54 54 54 54 55 53 51 50 50 50 51 49 50 52 54 57 60 62 62 55 52 50 45 43 45 44
39 40 41 42 43 46 46 46 48 50 52 54 57 58 58 57 58 59 57 55 55 54 51 53 54 52 54 50 49 51 50 54 55 58 63 57 57 50 47 41 44 45 46
43 44 45 46 45 47 48 48 50 53 54 56 58 62 64 64 63 59 58 57 55 54 53 52 53 54 52 51 50 50 50 53 52 58 59 54 55 46 43 45 43 46 47
49 50 52 54 55 56 56 58 59 61 63 62 61 61 64 66 67 67 61 58 60 56 55 53 52 50 48 50 52 52 50 51 52 56 56 52 52 47 47 46 44 48 46
57 57 58 58 60 61 62 62 64 65 65 66 66 66 68 67 65 70 73 65 63 58 60 59 54 48 50 51 48 49 50 50 53 53 51 50 51 50 49 48 47 46 50
57 59 60 61 62 64 66 68 70 70 70 70 69 69 69 73 69 69 70 72 72 65 65 62 58 51 48 50 48 47 48 50 54 48 46 47 50 49 50 50 49 49 52
63 65 67 69 69 69 70 71 73 73 72 68 68 67 67 66 67 70 74 72 76 74 72 66 62 58 48 50 49 51 48 48 53 52 45 45 47 46 48 51 52 53 54
65 66 68 69 70 70 69 69 69 68 67 65 61 64 65 67 70 71 73 73 71 70 70 64 59 54 53 53 50 49 53 48 49 52 47 43 44 45 48 51 51 52 52
64 65 66 66 67 69 69 69 69 70 72 72 73 68 66 66 68 70 70 70 72 72 71 68 64 55 56 52 49 54 56 53 50 48 47 42 45 46 49 50 48 50 51
67 69 71 72 73 74 75 77 77 76 78 78 78 77 77 71 67 67 69 70 71 73 73 67 65 58 50 48 50 54 55 52 49 47 49 45 45 46 46 45 49 50 51
69 71 73 75 76 78 79 80 80 80 80 80 79 79 78 78 78 74 67 67 68 73 74 64 70 69 64 64 67 61 55 54 51 50 47 47 46 47 49 49 45 49 50
73 75 76 77 78 78 78 78 78 79 81 81 81 81 79 76 76 74 73 70 66 65 67 68 63 60 57 54 52 56 54 50 51 49 46 48 46 47 55 48 46 49 49
75 75 75 76 78 79 79 79 81 80 80 79 78 77 76 76 74 73 72 71 70 67 66 68 65 63 56 50 50 51 50 52 50 46 46 44 50 49 53 53 50 49 48
81 78 77 77 78 79 81 83 83 83 81 78 76 75 76 76 77 75 73 71 70 68 65 64 63 61 60 54 47 49 50 48 48 45 45 59 48 46 55 55 55 48 51
82 79 79 80 82 83 81 80 81 81 81 82 81 81 81 79 79 78 76 74 71 68 65 64 64 61 58 55 55 59 57 44 44 45 42 42 50 48 46 51 54 48 50
82 81 80 81 81 81 81 84 86 85 82 80 78 78 79 78 78 77 74 72 70 68 66 63 65 63 57 52 66 59 49 42 53 45 42 44 50 50 55 55 58 49 49
81 81 82 84 84 84 86 85 86 85 81 79 77 76 75 74 73 75 74 72 71 71 69 67 65 60 57 55 58 57 49 40 46 51 47 45 50 44 53 53 52 52 54
77 77 78 78 78 81 80 80 80 79 77 76 75 75 74 73 74 76 76 74 72 70 67 63 62 58 55 52 50 45 47 49 46 49 51 44 46 47 43 47 46 54 51
71 71 71 72 73 75 78 78 79 79 77 76 75 77 78 79 80 81 81 80 74 68 64 62 57 53 52 46 44 45 44 53 43 44 43 46 43 40 43 44 44 47 49
67 70 71 73 75 77 80 82 84 84 82 81 79 79 80 81 81 77 75 72 68 61 58 55 49 47 45 45 45 44 43 40 41 37 38 38 41 40 45 46 45 43 50

GFSMA_500_spd_006.txt.gz
Wind_Speed
38 39 41 43 43 39 39 40 41 41 40 38 38 38 38 38 38 39 40 41 41 41 41 41 42 43 44 45 45 45 44 42 41 42 45 44 47 49 49 50 50 49 49
43 45 46 45 42 41 42 41 42 43 43 43 43 42 43 44 44 45 45 44 44 43 43 43 44 44 45 46 47 46 45 43 42 44 47 45 47 49 51 53 53 55 51
38 40 40 40 41 42 43 42 43 45 47 47 47 48 48 48 47 47 47 47 46 45 45 45 47 47 47 47 47 46 44 42 45 47 45 46 48 50 52 53 54 59 55
36 38 38 40 41 42 42 43 44 46 48 51 52 53 53 53 52 51 48 49 49 49 49 48 49 51 50 49 47 47 46 46 46 46 47 47 49 50 53 55 57 58 59
36 36 37 38 39 41 42 44 46 48 49 51 54 56 57 57 55 52 52 53 52 53 53 53 52 52 52 51 50 48 48 49 47 47 47 49 51 51 52 54 57 60 56
36 37 38 40 43 45 46 47 49 51 52 53 56 57 58 58 57 55 55 56 56 57 58 57 55 54 54 52 50 50 50 50 47 45 47 48 49 52 52 54 57 57 55
35 36 36 37 39 40 42 42 44 46 47 51 54 55 57 57 57 58 59 59 59 60 58 56 58 56 54 54 55 52 52 49 46 46 46 47 47 49 50 51 54 50 57
40 41 43 44 45 47 49 50 51 52 52 54 57 61 62 60 59 62 63 63 62 62 58 56 57 59 56 54 52 53 49 45 46 47 48 47 46 48 47 48 49 50 49
46 49 50 52 54 54 55 55 56 58 59 59 61 65 67 67 66 61 63 64 64 63 60 61 61 58 56 51 54 52 46 46 47 45 46 45 45 46 45 45 45 46 48
49 51 52 54 55 57 58 60 61 62 63 64 66 66 67 70 73 74 64 64 66 64 63 61 60 58 54 54 55 54 52 48 48 45 43 43 43 42 43 42 43 42 45
52 54 55 58 60 62 64 67 68 70 71 72 72 73 74 73 71 72 74 64 61 60 60 62 62 60 56 54 54 56 55 54 43 44 45 43 43 39 40 43 44 43 45
57 60 61 63 64 66 67 69 70 70 70 71 71 70 68 67 64 65 67 65 64 59 62 64 63 61 58 54 54 54 52 52 46 42 41 44 43 40 40 41 41 43 45
57 58 59 61 63 64 65 66 67 67 68 69 70 72 68 62 59 61 64 66 68 68 67 64 60 60 59 56 55 55 54 50 50 42 41 42 48 43 40 40 41 41 44
61 63 65 67 69 71 72 73 74 74 75 76 75 75 76 76 76 71 69 70 70 68 67 70 64 60 59 59 55 53 53 52 44 45 45 46 50 44 39 41 42 43 44
65 67 69 71 72 74 75 76 77 78 79 80 81 82 82 81 79 77 75 73 74 75 74 72 72 68 65 64 61 60 53 50 47 47 50 53 51 44 41 38 42 43 45
71 74 77 78 80 82 83 84 83 83 84 85 86 86 84 82 79 77 76 73 70 72 73 68 67 69 66 65 63 59 59 56 55 55 56 54 55 50 47 42 45 43 47
78 81 83 85 86 88 88 89 88 88 88 87 85 84 83 82 81 78 77 77 76 74 72 69 63 61 61 61 59 59 56 52 48 47 47 50 51 45 47 45 45 47 46
86 89 91 93 93 92 90 89 88 88 87 86 85 84 81 80 79 78 78 77 76 73 73 72 65 58 56 55 54 55 53 56 48 49 45 48 48 45 43 45 45 46 45
94 96 97 96 96 95 93 89 88 87 86 84 82 79 79 78 75 74 74 75 73 73 72 71 69 62 59 57 56 53 50 52 49 48 50 53 48 47 43 44 43 46 50
99 98 95 93 92 90 90 88 89 87 84 81 81 79 77 76 76 73 73 73 72 71 70 68 67 63 60 55 55 52 51 51 48 47 51 51 48 50 42 40 48 53 47
99 98 96 93 89 84 79 77 76 76 73 72 72 72 71 72 72 72 74 72 72 70 68 67 65 63 59 56 55 53 52 51 49 51 49 49 53 57 58 47 54 51 48
94 92 87 80 75 73 72 72 72 71 69 71 70 69 69 70 70 71 72 71 68 67 65 65 64 62 59 57 56 56 54 50 52 53 43 48 49 45 40 42 42 46 50
78 73 71 71 70 69 69 70 71 72 73 74 74 73 71 72 73 73 71 70 69 69 70 69 68 63 62 59 58 58 56 54 51 53 56 45 42 47 39 49 52 56 57
67 65 64 65 66 68 71 74 77 79 80 80 81 80 79 77 78 80 77 74 72 72 72 72 72 67 65 61 60 58 56 54 51 49 42 45 47 44 45 45 49 54 50
64 66 68 70 72 74 77 79 82 82 83 84 84 82 79 76 75 77 77 75 73 70 70 68 66 63 59 57 56 55 53 50 45 45 45 41 46 51 42 47 45 44 41
69 72 74 79 81 82 83 85 87 88 87 86 82 78 73 70 69 67 68 67 66 65 62 58 53 51 52 51 50 49 44 41 39 39 38 40 38 44 42 38 39 38 38

GFSMA_500_spd_012.txt.gz
Wind_Speed
36 38 41 43 46 47 47 47 46 45 45 44 45 45 46 46 46 46 47 49 51 53 54 55 54 54 54 54 53 52 50 49 49 49 48 48 48 46 45 44 43 41 39
43 46 46 44 43 42 40 40 40 41 42 43 44 45 46 47 48 49 49 49 51 52 53 55 56 56 56 55 54 53 52 51 51 50 51 51 50 49 48 47 47 45 42
46 45 43 41 41 41 40 39 40 41 42 44 45 46 47 48 49 50 51 51 52 53 54 55 55 56 55 55 54 53 53 53 53 53 54 53 51 50 49 48 49 48 46
38 35 35 36 37 38 39 39 40 39 39 41 42 43 44 46 47 48 48 50 51 52 53 55 56 55 55 56 56 57 55 55 55 55 56 54 53 50 50 50 49 48 46
34 32 32 32 33 33 35 37 39 41 42 44 46 47 48 50 51 53 53 55 56 56 57 57 59 60 59 60 60 60 58 58 57 57 56 55 53 51 51 51 49 47 47
31 30 31 33 36 37 39 41 43 45 46 48 50 49 50 51 52 54 56 59 60 62 63 63 63 63 64 64 63 62 61 60 59 58 57 55 53 51 50 49 49 48 48
34 35 36 38 40 41 43 46 48 49 52 55 57 57 58 58 59 59 61 61 63 65 66 66 66 67 66 66 66 65 63 59 57 58 57 56 54 51 48 48 49 47 49
38 39 41 43 45 47 49 52 55 56 57 58 60 63 63 60 58 59 60 61 62 63 62 62 62 63 65 66 66 65 65 62 59 58 58 56 53 52 51 49 47 47 51
41 43 46 48 50 52 52 54 56 59 59 60 62 64 66 67 67 65 65 65 65 65 66 66 65 65 64 63 63 64 62 61 61 60 58 56 53 51 49 46 46 45 49
46 47 47 47 49 52 54 56 58 60 61 61 62 65 69 73 76 76 74 74 73 70 67 65 65 64 66 64 63 61 61 62 64 63 59 59 58 51 51 48 46 45 49
43 45 47 51 55 57 59 60 61 63 67 69 72 75 78 80 82 85 82 80 81 80 77 75 69 65 64 63 64 63 64 64 70 66 63 59 61 55 52 51 48 47 49
49 52 55 59 62 64 66 68 70 73 75 77 79 81 83 86 88 91 93 91 90 89 89 87 84 77 72 69 69 68 65 65 62 63 60 60 60 60 56 55 53 50 52
55 59 62 66 69 70 72 74 76 79 80 82 84 87 90 93 96 98 100 100 100 98 97 95 90 87 83 78 74 71 72 71 74 66 64 61 64 62 61 56 58 57 55
62 66 68 70 71 74 75 77 78 80 83 87 92 95 97 98 98 99 101 101 103 100 98 96 90 86 83 80 78 76 72 71 74 75 75 73 73 71 69 62 62 61 60
70 72 72 74 75 77 80 82 85 89 95 98 102 104 104 102 101 101 97 91 88 94 96 87 83 78 76 73 70 71 73 73 71 71 68 69 70 68 64 62 61 57 59
73 75 76 78 81 84 88 91 95 98 100 103 105 103 102 100 98 93 83 74 72 75 79 71 70 70 67 65 66 67 70 69 70 70 70 70 69 67 63 61 62 59 51
76 78 81 83 86 89 93 95 100 104 105 104 100 98 95 89 80 70 67 65 65 67 71 64 65 64 67 67 66 65 65 67 67 66 69 67 65 65 66 64 67 60 58
77 79 82 86 89 94 100 102 104 104 101 96 89 84 78 73 68 66 65 63 65 66 69 69 61 60 62 64 67 66 65 64 62 63 66 64 64 62 61 61 63 64 60
79 83 87 92 97 101 103 102 99 93 89 83 79 75 72 70 68 68 69 70 72 73 75 77 72 69 67 65 64 64 64 63 63 62 61 64 63 62 62 60 59 59 57
84 89 94 98 102 101 97 92 86 81 79 78 76 75 75 75 75 74 75 78 81 82 82 83 83 79 76 71 71 68 63 63 62 60 60 64 64 61 63 64 63 62 63
90 95 99 100 99 90 84 81 78 77 77 76 76 77 79 81 82 83 84 84 88 90 90 90 90 87 83 78 77 74 71 63 58 61 62 60 64 66 66 61 62 62 64
96 99 99 94 85 78 77 77 79 80 81 83 85 86 88 90 92 93 94 95 96 96 94 92 89 86 79 75 70 69 70 67 58 58 58 55 54 55 58 61 63 65 66
97 95 89 80 76 75 79 83 87 90 91 92 93 93 93 92 93 94 93 93 92 88 87 85 81 76 70 66 63 62 62 63 59 57 60 52 55 53 54 58 60 62 65
93 86 78 74 76 81 87 91 92 92 90 86 83 79 75 76 77 78 78 78 75 72 69 67 65 64 61 57 53 52 51 53 55 55 60 55 56 56 58 59 60 61 61
83 74 72 76 83 88 92 92 88 82 76 72 69 64 67 67 65 62 62 61 57 52 51 49 49 50 52 47 44 43 42 45 47 50 51 54 53 54 55 55 57 58 58
73 71 75 82 89 92 88 81 75 74 69 60 58 58 58 60 58 54 52 50 46 41 38 34 35 38 41 39 34 34 34 37 39 39 41 48 48 50 50 49 50 53 52

GFSMA_500_spd_018.txt.gz
Wind_Speed
25 28 31 35 36 39 41 42 41 40 40 40 40 39 39 39 41 42 42 42 43 44 44 45 46 46 47 49 49 50 52 53 54 53 52 52 51 50 48 46 45 45 45
30 33 36 37 39 37 38 37 36 35 35 35 36 37 37 38 39 41 42 43 45 47 49 49 50 50 51 52 53 53 53 54 53 53 52 52 52 51 51 50 49 49 48
35 36 37 37 36 35 35 34 34 33 34 35 36 38 40 42 44 46 48 48 49 51 53 54 55 55 55 56 56 57 58 58 58 57 57 56 56 55 55 55 55 53 52
37 37 36 35 35 35 35 34 35 36 38 40 41 43 44 46 48 50 51 53 53 54 54 54 57 58 57 57 57 58 58 60 60 61 61 60 60 60 60 60 59 59 58
37 36 35 36 36 36 37 39 40 41 42 44 45 46 46 47 48 50 52 54 55 56 57 58 57 59 61 61 60 59 59 59 60 61 61 61 61 62 62 62 61 60 58
37 36 36 37 38 39 41 42 43 45 46 46 46 47 48 50 52 54 56 57 59 61 62 63 63 64 64 65 67 68 67 67 66 65 65 64 63 63 63 62 62 63 62
37 38 39 40 41 41 43 43 43 43 45 48 50 52 55 57 58 61 62 64 65 66 67 69 70 71 72 73 72 73 73 73 72 72 71 68 66 65 63 64 63 63 63
39 40 41 42 43 43 43 43 45 47 51 55 59 62 63 62 64 67 68 68 69 69 70 71 73 74 76 76 77 77 78 77 77 76 76 74 73 69 67 66 64 64 65
40 41 42 43 42 42 44 47 49 51 54 58 63 68 70 70 71 70 70 72 72 74 74 76 77 79 81 83 83 83 83 84 84 83 82 80 78 76 72 68 68 68 67
42 42 42 41 43 46 48 50 53 57 61 65 68 69 72 76 79 78 78 79 79 80 81 82 84 86 89 91 90 89 88 86 87 88 87 85 84 81 74 73 73 72 69
42 41 42 45 48 50 53 56 61 64 70 72 74 75 77 78 80 84 85 87 88 90 90 92 93 95 96 97 96 96 94 91 89 88 90 89 81 78 72 77 77 75 72
42 44 47 49 52 55 59 62 66 70 73 75 76 79 81 84 86 88 90 90 92 92 94 95 98 101 103 103 101 96 97 91 86 87 89 92 83 80 78 79 80 77 80
45 47 51 54 57 60 65 69 73 74 76 78 80 82 85 88 91 94 97 97 98 97 98 98 103 106 108 107 102 96 87 79 80 82 84 87 90 91 85 80 73 70 77
49 53 57 61 64 67 70 73 75 76 78 80 83 86 89 92 95 98 101 106 107 106 104 102 104 104 103 96 91 85 76 69 71 73 75 80 83 86 92 92 93 80 74
55 59 63 65 68 70 73 75 77 79 82 85 88 92 94 97 100 103 104 104 107 110 109 100 98 91 91 85 81 77 72 68 67 68 68 69 72 79 84 90 92 98 108
60 63 66 68 70 73 76 78 80 83 86 90 94 96 98 101 100 100 100 99 96 98 103 95 90 88 88 86 82 79 76 71 69 65 66 67 67 68 70 79 86 92 97
65 67 69 71 73 76 79 82 85 88 91 94 97 99 100 100 100 99 97 94 94 97 100 90 88 80 83 87 87 87 82 77 72 70 70 66 64 62 62 65 75 81 87
68 70 72 74 77 79 82 85 88 92 94 97 99 100 100 100 96 93 91 92 92 90 90 89 82 78 72 72 77 85 89 87 81 75 74 71 67 65 63 62 61 66 72
71 73 75 77 80 82 85 88 91 93 96 98 99 99 97 94 89 87 89 88 85 83 81 79 71 68 64 61 66 69 72 77 87 86 81 77 75 71 66 63 62 62 64
73 74 77 79 81 84 86 89 92 95 97 98 96 94 91 87 86 88 85 80 78 76 72 70 70 67 64 62 66 69 71 70 74 79 87 85 81 77 73 68 65 64 65
74 77 78 80 83 85 88 92 95 97 97 95 93 89 83 85 86 84 78 74 72 69 67 70 69 65 62 61 60 61 63 62 61 67 74 83 86 83 79 77 72 68 69
76 76 79 82 83 87 91 94 97 97 94 90 85 79 82 85 83 75 70 69 69 66 68 67 62 60 57 58 57 56 54 50 46 44 56 64 74 79 81 81 78 75 71
75 78 81 84 87 90 93 94 94 90 85 82 80 80 81 83 75 69 66 66 63 63 61 60 61 58 57 56 55 51 46 44 37 32 39 46 52 61 66 69 68 67 66
77 80 84 87 90 94 94 91 86 81 78 79 81 82 83 75 69 67 65 61 58 56 56 57 61 59 57 53 52 48 41 34 26 24 28 28 35 41 48 50 52 54 56
80 84 88 91 92 91 88 83 80 76 76 77 80 84 76 69 67 65 63 58 54 51 52 55 57 53 52 49 46 40 32 25 15 13 17 19 24 29 35 39 42 46 49
84 89 91 93 92 88 81 76 75 75 76 77 80 78 68 67 65 61 59 57 53 50 49 49 44 45 46 41 38 34 27 12 2 2 10 15 18 19 22 27 32 37 41

GFSMA_500_spd_024.txt.gz
Wind_Speed
24 24 25 28 29 31 34 35 37 39 40 41 40 38 35 33 32 32 32 33 35 36 37 39 41 41 41 42 44 46 47 47 49 50 51 51 52 52 52 53 52 51 50
29 29 30 32 34 35 37 37 36 36 37 37 36 34 34 33 33 35 35 34 35 35 37 38 40 43 45 46 47 48 49 50 52 52 52 52 52 53 53 55 55 54 53
33 33 34 36 38 39 38 35 34 33 32 32 32 32 33 34 34 35 35 36 36 37 40 42 45 47 51 53 54 56 56 57 57 58 58 58 58 56 55 54 54 55 54
35 35 36 39 41 39 35 33 32 31 32 33 33 34 34 34 35 36 37 38 40 42 44 45 49 51 54 55 58 60 61 61 62 62 62 62 62 62 61 61 60 59 59
35 37 39 42 39 35 33 33 34 34 35 36 35 36 35 37 38 40 42 43 46 48 50 52 54 56 59 60 63 64 66 66 66 66 66 67 66 66 66 65 65 64 64
37 40 43 42 38 36 35 36 35 37 38 38 38 38 39 42 44 45 47 49 52 54 57 60 64 65 66 67 67 68 70 72 73 72 72 72 72 71 70 70 70 70 67
40 42 42 40 39 38 37 38 39 39 40 42 43 44 46 47 49 50 54 56 58 61 64 67 69 71 71 71 72 73 74 75 77 79 81 80 79 78 76 76 75 75 74
42 42 41 38 38 40 41 41 41 41 43 46 48 48 49 50 53 57 61 66 68 70 71 72 73 73 75 76 77 79 81 81 80 80 82 84 86 87 85 84 83 82 81
41 41 41 40 41 43 43 44 45 46 47 51 54 59 62 64 66 65 66 68 70 71 73 74 76 77 79 80 81 83 83 85 86 87 86 86 88 90 92 92 92 90 89
41 40 41 42 42 43 43 44 47 50 54 57 60 64 69 74 76 75 71 71 72 74 75 77 80 82 84 85 85 85 86 87 88 89 90 92 93 93 95 97 98 98 97
40 41 41 40 40 43 46 50 53 57 61 64 67 69 70 71 73 76 76 78 78 79 81 83 84 85 87 89 90 91 93 94 94 96 97 97 97 100 101 101 103 104 105
40 39 40 42 45 48 52 55 59 62 65 68 70 72 75 77 79 80 80 80 81 83 86 88 91 93 95 96 97 99 100 101 101 100 98 99 101 101 101 102 102 101 102
39 40 43 47 51 54 57 61 63 66 69 71 74 75 77 79 82 84 87 87 88 87 89 91 95 98 102 106 107 107 106 104 102 102 102 97 93 93 94 93 90 87 91
41 45 49 52 56 59 62 65 68 71 73 75 76 77 79 81 84 87 90 95 95 94 95 97 101 103 106 107 106 105 103 99 96 92 90 89 88 87 87 85 85 86 85
46 50 53 56 59 62 65 69 71 73 74 76 77 79 82 84 87 91 94 99 105 106 102 103 107 103 103 103 102 99 95 89 86 84 83 83 81 81 81 80 80 80 82
51 54 57 60 64 67 70 72 74 75 76 77 80 82 84 88 92 97 102 105 109 112 113 105 103 99 96 95 91 90 87 83 79 77 76 74 73 74 74 73 70 70 74
54 57 61 65 69 72 73 74 74 75 77 78 81 85 89 96 100 104 107 108 107 107 108 100 95 90 84 82 81 82 83 79 74 71 70 68 66 64 64 64 63 63 63
59 62 67 71 73 73 72 73 73 75 77 81 87 93 97 102 105 108 108 106 104 100 99 97 88 83 82 78 77 76 73 70 68 67 65 62 60 61 64 65 64 63 62
64 68 72 73 72 71 71 71 73 76 83 89 94 99 104 107 108 106 102 99 95 92 88 89 86 82 80 78 74 67 65 62 61 61 61 59 60 63 61 58 58 59 61
69 73 72 70 68 68 70 74 79 84 90 96 101 103 106 106 102 97 93 89 88 86 84 85 84 81 76 67 68 65 60 54 53 56 57 58 62 60 57 58 60 62 63
74 71 67 66 67 70 76 82 86 91 96 99 101 105 104 97 90 87 85 83 82 83 82 83 81 73 65 61 58 55 55 51 47 53 54 51 55 55 56 57 58 59 61
68 64 64 67 70 76 82 87 93 98 102 103 106 102 93 87 82 79 78 78 79 82 84 78 71 64 60 60 57 55 51 47 41 45 50 44 50 45 45 45 46 48 51
62 63 66 71 77 84 89 94 99 102 105 105 98 90 82 78 77 75 75 75 77 79 69 68 66 63 59 56 53 49 46 42 37 33 39 31 34 31 30 28 31 34 37
63 67 73 79 85 90 95 99 104 107 104 95 85 80 76 73 73 76 77 78 78 64 58 58 57 54 51 50 47 37 30 23 18 23 31 18 18 14 20 24 29 33 32
68 74 79 84 89 94 100 106 107 105 95 83 77 73 73 74 76 79 81 78 63 52 51 52 52 50 48 38 33 29 26 17 13 19 21 14 13 14 18 21 30 32 23
74 78 82 88 92 99 104 109 105 95 86 79 72 72 74 79 81 80 72 57 48 47 48 42 38 34 31 33 35 37 34 24 17 14 23 23 23 23 19 18 20 17 12

GFSMA_500_spd_027.txt.gz
Wind_Speed
31 30 27 26 28 29 30 33 34 36 36 37 38 37 36 36 34 33 34 33 34 34 34 34 35 35 35 36 37 38 40 41 42 43 44 45 45 46 47 48 49 49 50
35 34 33 32 32 33 34 36 38 39 38 35 34 34 33 33 33 34 36 36 36 36 36 37 37 38 40 40 43 43 44 46 48 49 51 52 53 53 52 52 52 53 53
37 38 38 36 36 37 38 40 42 39 35 32 31 31 32 33 36 37 38 38 38 38 39 40 41 43 45 45 47 48 49 51 51 53 55 56 57 59 59 59 58 58 57
37 40 40 39 38 38 41 43 40 38 35 33 33 35 35 36 38 39 39 41 42 43 44 46 48 49 50 51 52 54 55 57 58 59 60 61 61 62 63 63 62 61 61
33 32 34 35 37 39 42 41 40 38 38 37 38 38 38 38 39 40 43 45 47 48 50 52 54 55 56 58 61 63 64 66 66 67 67 67 67 66 67 67 67 67 64
30 31 34 37 39 40 40 40 38 39 39 39 39 39 40 41 43 45 46 48 50 52 55 57 61 64 66 68 69 71 72 70 71 72 72 73 73 72 72 73 73 72 72
34 36 39 41 41 41 40 39 39 40 42 42 42 42 43 45 47 49 52 55 57 62 64 66 67 70 71 72 73 74 75 77 76 76 76 76 76 76 77 78 78 77 77
40 40 41 42 43 42 41 42 42 41 42 44 45 46 46 48 52 56 59 62 65 67 68 70 71 72 74 75 76 77 78 79 81 81 81 81 80 79 81 82 82 82 81
42 43 43 42 41 40 42 42 43 43 45 48 52 56 58 59 60 60 62 64 67 68 70 71 73 75 77 79 80 81 83 84 85 85 87 87 87 87 86 86 87 87 87
43 43 42 40 41 41 41 42 45 48 51 54 56 62 67 70 72 70 67 68 70 71 73 74 76 78 81 83 85 86 88 89 90 91 91 91 93 93 93 93 92 92 94
44 42 41 41 41 42 43 46 50 54 58 60 63 65 67 69 72 77 78 76 75 75 76 77 79 82 84 87 89 91 92 94 95 96 98 98 99 100 101 101 102 102 101
39 41 41 41 42 45 48 52 55 58 61 64 67 70 72 73 73 75 76 77 80 81 83 85 87 89 91 94 96 98 100 101 101 100 100 101 102 103 103 103 104 104 104
40 40 41 43 46 50 53 56 59 62 65 67 70 71 73 75 77 79 82 83 83 83 85 88 92 98 102 105 107 107 106 105 103 101 100 99 98 98 98 98 98 100 102
41 42 44 48 51 54 57 60 63 66 69 71 72 72 73 73 76 79 84 88 88 88 89 94 100 104 109 110 111 110 108 106 103 98 94 91 90 89 89 90 90 89 89
43 45 48 52 55 57 61 64 67 70 70 70 70 71 73 76 80 84 89 96 101 100 97 99 107 108 109 108 105 103 100 96 93 89 86 84 82 81 80 78 79 79 80
46 50 52 55 58 62 65 68 70 69 68 68 70 73 76 81 87 93 98 104 109 113 111 107 105 103 101 100 96 93 90 87 82 80 79 78 76 77 76 74 74 75 76
49 52 55 59 62 66 69 70 68 67 68 70 74 79 84 90 95 101 106 110 113 113 112 103 96 92 87 86 83 83 85 82 81 78 78 76 73 71 70 69 68 68 68
52 55 59 63 67 70 69 66 66 68 71 75 81 86 92 97 102 107 110 112 110 104 101 97 86 82 78 73 72 74 78 79 77 72 71 67 64 64 64 63 63 63 63
55 60 64 67 69 66 64 66 68 72 77 83 89 94 100 105 109 111 111 107 99 93 88 86 82 74 72 73 73 74 70 63 63 62 60 60 61 59 59 59 60 61 61
60 64 68 67 64 64 67 69 74 80 85 90 96 101 105 110 113 112 103 95 89 85 81 79 78 75 74 75 73 65 58 60 60 60 57 55 56 56 56 59 59 60 59
63 67 65 63 65 67 71 77 82 86 91 96 100 105 110 114 108 98 91 85 82 79 78 79 79 79 76 64 58 56 55 49 46 50 51 51 53 52 53 54 54 52 52
66 62 62 64 67 73 79 83 88 93 98 101 106 110 115 107 94 87 81 79 80 82 83 84 81 71 56 55 55 54 46 39 34 37 41 36 42 39 42 43 42 41 40
60 61 64 68 73 78 82 88 92 97 100 105 110 114 104 93 86 79 76 79 81 81 75 68 56 49 50 52 44 33 24 27 28 30 32 25 33 32 32 27 25 25 27
60 63 67 73 77 82 88 94 97 101 105 110 114 104 92 84 80 82 83 80 70 56 47 43 46 46 44 35 31 29 29 28 27 28 34 30 30 25 21 20 25 27 31
62 67 73 76 81 88 94 98 102 106 110 113 102 89 86 86 85 79 69 56 46 40 40 40 40 37 33 38 42 41 42 38 29 25 36 30 28 19 22 24 28 29 30
67 72 76 81 87 93 98 102 108 112 111 101 86 85 83 77 65 51 48 43 40 38 34 29 27 31 38 42 44 41 34 25 22 17 30 27 27 25 22 25 28 31 30

GFSMA_500_spd_030.txt.gz
Wind_Speed
29 31 32 33 33 31 31 32 33 35 37 39 41 40 40 39 38 37 36 36 36 37 38 39 40 40 41 41 40 40 41 42 41 42 44 44 45 45 46 46 46 47 47
31 33 37 37 39 37 36 36 37 38 39 41 40 39 38 38 39 38 38 38 39 40 41 42 43 43 43 44 45 45 46 47 47 47 49 49 49 49 50 50 51 52 53
32 34 34 36 39 38 39 40 40 40 41 41 39 37 38 38 39 40 41 43 43 43 43 44 45 46 47 49 50 50 51 52 53 54 54 53 54 55 55 55 55 56 57
31 31 33 33 32 38 41 41 41 41 41 41 39 38 38 39 40 42 43 44 45 45 47 48 50 51 53 54 55 56 57 58 59 60 62 64 63 63 62 61 61 61 62
28 28 29 28 29 31 35 39 40 41 41 41 40 40 41 42 43 43 44 45 47 48 50 51 53 55 57 58 60 61 63 66 68 69 70 71 72 72 71 68 67 67 67
29 28 30 32 35 38 40 42 44 45 43 41 41 41 42 43 44 45 46 48 50 52 55 57 60 62 64 66 67 69 70 72 73 74 73 74 74 75 76 77 75 73 72
30 33 37 38 39 41 42 45 46 45 45 42 40 42 43 46 46 48 51 54 56 59 62 65 66 67 69 70 71 72 73 74 74 75 76 76 77 78 79 79 80 80 79
35 37 39 41 42 43 45 45 42 42 43 44 45 45 44 47 51 54 57 60 63 65 67 69 70 71 72 73 73 74 75 76 77 78 79 81 82 83 84 84 85 85 86
38 40 41 43 45 44 41 40 41 43 44 47 49 51 54 55 57 57 60 63 65 66 68 68 69 71 73 74 75 76 77 78 80 81 82 84 86 88 89 90 91 91 90
39 43 44 44 42 41 41 43 44 46 48 50 54 59 63 65 66 63 63 65 66 67 69 69 70 71 73 75 77 79 81 83 85 86 88 90 92 93 95 97 98 98 98
42 45 44 42 41 42 43 45 47 50 53 57 60 62 64 68 72 76 75 73 69 67 67 68 70 73 76 79 82 85 88 91 94 95 97 98 100 101 102 103 103 104 104
44 44 41 42 43 45 46 48 51 54 58 61 63 67 69 71 72 74 75 76 78 74 71 72 76 80 85 89 94 97 99 102 104 104 105 106 107 108 108 108 109 108 109
42 42 43 44 45 46 49 52 55 59 61 65 68 70 72 73 74 74 75 76 78 78 79 81 86 92 97 101 104 107 109 110 111 110 109 109 109 108 109 109 108 106 106
41 44 45 45 47 49 53 56 59 61 65 69 71 71 70 70 71 74 79 83 83 83 83 90 96 102 106 111 114 117 117 115 112 110 108 105 103 102 101 99 99 100 100
43 45 45 47 50 53 55 59 62 66 70 71 68 67 69 71 74 80 85 90 95 95 93 96 103 109 115 119 119 117 113 109 105 102 100 98 95 92 90 89 89 87 90
45 45 48 51 54 56 58 62 67 70 69 67 67 69 73 78 83 87 92 97 103 109 110 106 110 116 119 117 111 106 101 97 92 88 86 86 84 82 82 81 80 81 81
46 47 51 54 55 58 63 67 70 67 66 67 70 75 79 84 88 94 99 104 109 115 120 116 117 114 107 102 97 95 92 87 84 79 78 79 80 79 77 77 76 75 75
47 52 54 54 58 62 67 67 64 64 67 70 76 80 84 90 95 101 107 111 116 119 124 122 109 96 89 82 80 80 80 80 81 79 79 74 69 67 69 70 68 67 68
51 52 54 58 62 66 65 63 64 67 71 77 81 86 93 99 104 109 113 118 122 121 112 103 95 85 80 79 77 78 78 77 76 70 61 60 62 64 63 64 66 66 65
51 54 58 62 66 63 62 63 67 72 77 81 88 95 100 106 110 114 120 123 116 103 96 93 91 87 85 82 80 76 67 58 52 53 55 58 57 56 56 57 57 57 56
54 58 61 64 61 61 64 68 72 77 82 88 95 100 105 110 114 121 120 106 97 95 93 88 81 75 67 60 53 45 40 42 43 40 39 38 41 42 43 43 44 44 47
58 62 63 60 61 64 68 73 78 81 89 96 100 105 110 114 119 112 97 93 91 84 70 64 55 48 44 45 43 40 30 27 23 30 38 34 42 41 39 39 38 33 31
61 60 59 60 64 68 74 78 83 89 94 101 106 110 114 116 104 92 88 81 68 55 52 49 45 46 43 38 30 30 35 36 35 36 45 39 44 42 43 40 38 28 23
58 57 60 64 69 74 78 83 88 94 100 105 109 114 112 97 88 83 75 61 48 45 44 44 42 37 34 37 41 38 32 24 24 28 41 35 36 37 38 33 34 29 26
56 59 64 69 73 78 84 89 96 100 104 107 112 106 91 86 77 69 57 47 42 41 37 33 35 39 41 38 36 30 25 23 19 25 28 26 28 25 25 26 29 28 27
58 62 68 73 77 84 91 96 100 105 106 110 100 84 80 73 63 54 48 43 38 29 27 32 32 31 31 29 30 33 32 28 26 24 29 25 25 25 22 24 22 23 22